GRL888X MZBZ-BGSF

Flight info

Callsign GRL888X
Flight time N/A
Altitude 35000
Route LITRA1D LITRA UR899 CTM UG765 CZM UB881 CUN UM219 MYDIA Y240 NAVVL M219 CIGAR DCT IRQ/N0450F350 DCT AIR DCT ROSVO DCT MT/N0447F370 DCT NOWAA DCT TEALS/M076F370 DCT MUSLO DCT EMBOK DCT SF
Aircraft A320/M-SDE3FGHIRWY/LB1

Departure

Time 2026-05-06 10:05
Airport Philip S. W. Goldson International Airport (MZBZ)

Arrival

Time N/A
Airport Kangerlussuaq International Airport (BGSF)
Time Latitude Longitude Altitude Speed Heading
2026-05-06 09:56 17.53705 -88.30764 25 ft 0 kts 166°
2026-05-06 09:58 17.53718 -88.30768 25 ft 2 kts 166°
2026-05-06 09:59 17.53733 -88.30771 25 ft 2 kts 166°
2026-05-06 09:59 17.53747 -88.30775 25 ft 2 kts 174°
2026-05-06 09:59 17.53761 -88.30770 25 ft 2 kts 233°
2026-05-06 09:59 17.53764 -88.30762 25 ft 1 kts 263°
2026-05-06 10:00 17.53765 -88.30756 25 ft 0 kts 257°
2026-05-06 10:02 17.53765 -88.30757 25 ft 1 kts 257°
2026-05-06 10:02 17.53748 -88.30829 25 ft 22 kts 256°
2026-05-06 10:03 17.53698 -88.31055 25 ft 38 kts 256°
2026-05-06 10:03 17.53630 -88.31361 26 ft 47 kts 257°
2026-05-06 10:03 17.53560 -88.31682 27 ft 34 kts 257°
2026-05-06 10:03 17.53698 -88.31787 25 ft 18 kts 41°
2026-05-06 10:04 17.53703 -88.31749 25 ft 0 kts 77°
2026-05-06 10:04 17.53713 -88.31707 25 ft 30 kts 77°
2026-05-06 10:04 17.53818 -88.31239 26 ft 98 kts 77°
2026-05-06 10:05 17.54016 -88.30341 26 ft 153 kts 77°
2026-05-06 10:05 17.54285 -88.29126 270 ft 176 kts 77°
2026-05-06 10:05 17.54577 -88.27922 882 ft 175 kts 75°
2026-05-06 10:05 17.55061 -88.26720 1383 ft 185 kts 57°
2026-05-06 10:06 17.56042 -88.25857 1993 ft 194 kts 23°
2026-05-06 10:06 17.57381 -88.25823 2662 ft 201 kts 345°
2026-05-06 10:06 17.58676 -88.26412 3301 ft 205 kts 342°
2026-05-06 10:06 17.60014 -88.26946 3868 ft 212 kts 340°
2026-05-06 10:07 17.61354 -88.27600 4516 ft 216 kts 336°
2026-05-06 10:07 17.62671 -88.28343 5176 ft 220 kts 333°
2026-05-06 10:07 17.63993 -88.29196 5761 ft 230 kts 329°
2026-05-06 10:07 17.65372 -88.30096 6359 ft 239 kts 333°
2026-05-06 10:08 17.66868 -88.30876 7042 ft 245 kts 341°
2026-05-06 10:08 17.68533 -88.31351 7709 ft 251 kts 355°
2026-05-06 10:08 17.70294 -88.31497 8346 ft 262 kts 360°
2026-05-06 10:08 17.72128 -88.31575 9105 ft 268 kts
2026-05-06 10:09 17.73915 -88.31617 9925 ft 270 kts
2026-05-06 10:09 17.75783 -88.31632 10741 ft 274 kts
2026-05-06 10:09 17.77706 -88.31616 11475 ft 282 kts
2026-05-06 10:09 17.79681 -88.31569 12196 ft 290 kts
2026-05-06 10:10 17.81759 -88.31539 12786 ft 303 kts
2026-05-06 10:10 17.83889 -88.31591 13413 ft 313 kts 359°
2026-05-06 10:10 17.86088 -88.31680 14047 ft 322 kts 359°
2026-05-06 10:10 17.88346 -88.31767 14679 ft 330 kts 360°
2026-05-06 10:11 17.90656 -88.31848 15311 ft 338 kts
2026-05-06 10:11 17.93012 -88.31924 15942 ft 344 kts
2026-05-06 10:11 17.95417 -88.31997 16586 ft 349 kts
2026-05-06 10:11 17.97878 -88.32071 17198 ft 355 kts
2026-05-06 10:12 18.00349 -88.32143 17803 ft 360 kts
2026-05-06 10:12 18.02860 -88.32215 18362 ft 366 kts
2026-05-06 10:12 18.05418 -88.32286 18864 ft 373 kts
2026-05-06 10:12 18.08025 -88.32359 19366 ft 379 kts
2026-05-06 10:13 18.10679 -88.32435 19871 ft 385 kts
2026-05-06 10:13 18.13358 -88.32513 20374 ft 390 kts
2026-05-06 10:13 18.16113 -88.32593 20885 ft 394 kts
2026-05-06 10:13 18.18862 -88.32673 21386 ft 399 kts
2026-05-06 10:14 18.21631 -88.32752 21887 ft 402 kts
2026-05-06 10:14 18.24429 -88.32812 22384 ft 405 kts
2026-05-06 10:14 18.27264 -88.32867 22760 ft 411 kts
2026-05-06 10:14 18.30146 -88.32922 23138 ft 417 kts
2026-05-06 10:15 18.33055 -88.32980 23517 ft 422 kts
2026-05-06 10:15 18.36030 -88.33040 23900 ft 426 kts
2026-05-06 10:15 18.38990 -88.33101 24278 ft 430 kts
2026-05-06 10:15 18.41984 -88.33163 24656 ft 433 kts
2026-05-06 10:16 18.44998 -88.33226 25036 ft 435 kts
2026-05-06 10:16 18.48020 -88.33181 25401 ft 437 kts
2026-05-06 10:16 18.50949 -88.32574 25773 ft 436 kts 18°
2026-05-06 10:16 18.53720 -88.31356 26147 ft 436 kts 30°
2026-05-06 10:17 18.56312 -88.29658 26533 ft 436 kts 34°
2026-05-06 10:17 18.58819 -88.27890 26909 ft 437 kts 34°
2026-05-06 10:17 18.61334 -88.26097 27287 ft 437 kts 34°
2026-05-06 10:17 18.63855 -88.24304 27666 ft 436 kts 34°
2026-05-06 10:18 18.66365 -88.22526 28115 ft 434 kts 34°
2026-05-06 10:18 18.68831 -88.20785 28820 ft 425 kts 34°
2026-05-06 10:18 18.71252 -88.19079 29516 ft 416 kts 34°
2026-05-06 10:18 18.73637 -88.17400 30216 ft 406 kts 34°
2026-05-06 10:19 18.75955 -88.15768 30712 ft 402 kts 34°
2026-05-06 10:19 18.78275 -88.14135 30940 ft 405 kts 34°
2026-05-06 10:19 18.83035 -88.10784 30955 ft 419 kts 33°
2026-05-06 10:20 18.87952 -88.07321 30960 ft 432 kts 33°
2026-05-06 10:20 18.93029 -88.03743 30961 ft 444 kts 33°
2026-05-06 10:21 18.98202 -88.00094 30962 ft 454 kts 33°
2026-05-06 10:21 19.03476 -87.96369 30963 ft 462 kts 33°
2026-05-06 10:22 19.08854 -87.92572 30964 ft 466 kts 33°
2026-05-06 10:22 19.14230 -87.88784 30967 ft 466 kts 33°
2026-05-06 10:23 19.19609 -87.84995 30972 ft 466 kts 33°
2026-05-06 10:23 19.24985 -87.81194 30979 ft 466 kts 33°
2026-05-06 10:24 19.30387 -87.77367 30983 ft 466 kts 33°
2026-05-06 10:24 19.35761 -87.73555 30985 ft 466 kts 33°
2026-05-06 10:25 19.41130 -87.69743 30985 ft 466 kts 33°
2026-05-06 10:25 19.46533 -87.65902 30985 ft 467 kts 33°
2026-05-06 10:26 19.51905 -87.62079 30984 ft 467 kts 33°
2026-05-06 10:26 19.57275 -87.58255 30985 ft 467 kts 33°
2026-05-06 10:27 19.62643 -87.54432 30985 ft 467 kts 33°
2026-05-06 10:27 19.68041 -87.50578 30985 ft 467 kts 33°
2026-05-06 10:28 19.73415 -87.46734 30986 ft 467 kts 33°
2026-05-06 10:28 19.78783 -87.42895 30990 ft 467 kts 33°
2026-05-06 10:29 19.84175 -87.39045 30995 ft 467 kts 33°
2026-05-06 10:29 19.89556 -87.35201 31000 ft 467 kts 33°
2026-05-06 10:30 19.94929 -87.31332 31003 ft 467 kts 33°
2026-05-06 10:30 20.00298 -87.27464 31005 ft 467 kts 33°
2026-05-06 10:31 20.05696 -87.23586 31004 ft 468 kts 33°
2026-05-06 10:31 20.11086 -87.19723 31005 ft 468 kts 33°
2026-05-06 10:32 20.16489 -87.15859 31005 ft 469 kts 33°
2026-05-06 10:32 20.21896 -87.11980 31005 ft 469 kts 33°
2026-05-06 10:33 20.27285 -87.08105 31005 ft 469 kts 33°
2026-05-06 10:33 20.32660 -87.04233 31006 ft 468 kts 33°
2026-05-06 10:34 20.38037 -87.00357 31007 ft 468 kts 33°
2026-05-06 10:34 20.43437 -86.96469 31007 ft 468 kts 32°
2026-05-06 10:35 20.49133 -86.93201 31009 ft 466 kts 22°
2026-05-06 10:35 20.55269 -86.91051 31010 ft 465 kts 12°
2026-05-06 10:36 20.61655 -86.90029 31012 ft 465 kts
2026-05-06 10:36 20.68069 -86.89392 31013 ft 465 kts
2026-05-06 10:37 20.74485 -86.88752 31014 ft 465 kts
2026-05-06 10:37 20.80899 -86.88095 31013 ft 465 kts
2026-05-06 10:38 20.87344 -86.87431 31013 ft 465 kts
2026-05-06 10:38 20.93754 -86.86767 31013 ft 465 kts
2026-05-06 10:39 21.00183 -86.86087 31012 ft 465 kts
2026-05-06 10:39 21.06573 -86.84952 31012 ft 466 kts 11°
2026-05-06 10:40 21.12897 -86.83520 31010 ft 467 kts 11°
2026-05-06 10:40 21.19239 -86.82073 31008 ft 467 kts 11°
2026-05-06 10:41 21.25567 -86.80629 31007 ft 466 kts 11°
2026-05-06 10:41 21.31817 -86.79202 31006 ft 466 kts 11°
2026-05-06 10:42 21.37506 -86.77901 31006 ft 466 kts 11°
2026-05-06 10:42 21.44133 -86.76384 31006 ft 466 kts 11°
2026-05-06 10:43 21.50353 -86.74965 31006 ft 466 kts 11°
2026-05-06 10:44 21.59845 -86.72794 31006 ft 467 kts 11°
2026-05-06 10:44 21.65975 -86.71388 31007 ft 466 kts 11°
2026-05-06 10:45 21.72362 -86.69920 31006 ft 466 kts 11°
2026-05-06 10:45 21.78553 -86.68494 31006 ft 466 kts 11°
2026-05-06 10:46 21.84887 -86.67037 31006 ft 466 kts 11°
2026-05-06 10:46 21.91224 -86.65587 31007 ft 466 kts 11°
2026-05-06 10:47 21.97574 -86.64128 31007 ft 466 kts 11°
2026-05-06 10:47 22.03903 -86.62670 31007 ft 466 kts 10°
2026-05-06 10:48 22.10233 -86.61211 31006 ft 466 kts 10°
2026-05-06 10:48 22.16578 -86.59751 31007 ft 466 kts 10°
2026-05-06 10:49 22.22909 -86.58291 31009 ft 466 kts 10°
2026-05-06 10:49 22.29229 -86.56826 31011 ft 466 kts 10°
2026-05-06 10:50 22.35562 -86.55355 31013 ft 466 kts 10°
2026-05-06 10:50 22.41919 -86.53884 31015 ft 467 kts 10°
2026-05-06 10:51 22.48250 -86.52424 31015 ft 467 kts 10°
2026-05-06 10:51 22.54579 -86.50957 31013 ft 466 kts 10°
2026-05-06 10:52 22.60927 -86.49481 31013 ft 466 kts 10°
2026-05-06 10:52 22.67258 -86.48005 31014 ft 467 kts 10°
2026-05-06 10:53 22.73586 -86.46528 31014 ft 467 kts 10°
2026-05-06 10:53 22.79912 -86.45057 31015 ft 466 kts 10°
2026-05-06 10:54 22.86275 -86.43581 31017 ft 466 kts 10°
2026-05-06 10:54 22.92607 -86.42105 31020 ft 466 kts 10°
2026-05-06 10:55 22.98929 -86.40627 31022 ft 466 kts 10°
2026-05-06 10:55 23.05281 -86.39138 31022 ft 466 kts
2026-05-06 10:56 23.11609 -86.37655 31023 ft 466 kts
2026-05-06 10:56 23.17937 -86.36173 31023 ft 465 kts
2026-05-06 10:57 23.24253 -86.34685 31022 ft 465 kts 10°
2026-05-06 10:57 23.30579 -86.33170 31022 ft 465 kts 10°
2026-05-06 10:58 23.36893 -86.31680 31022 ft 465 kts
2026-05-06 10:58 23.43203 -86.30196 31023 ft 465 kts
2026-05-06 10:59 23.49527 -86.28706 31023 ft 464 kts
2026-05-06 10:59 23.55819 -86.27223 31023 ft 464 kts
2026-05-06 11:00 23.62110 -86.25740 31023 ft 463 kts
2026-05-06 11:00 23.68406 -86.24252 31086 ft 462 kts
2026-05-06 11:00 23.71521 -86.23513 31466 ft 457 kts
2026-05-06 11:01 23.74594 -86.22785 31841 ft 452 kts
2026-05-06 11:01 23.77640 -86.22063 32216 ft 446 kts
2026-05-06 11:01 23.80642 -86.21353 32589 ft 441 kts
2026-05-06 11:01 23.83610 -86.20649 32944 ft 437 kts
2026-05-06 11:02 23.86575 -86.19948 33186 ft 435 kts
2026-05-06 11:02 23.89541 -86.19245 33438 ft 433 kts
2026-05-06 11:02 23.92473 -86.18550 33689 ft 431 kts
2026-05-06 11:02 23.95388 -86.17859 33938 ft 428 kts
2026-05-06 11:03 23.98281 -86.17092 34189 ft 427 kts 11°
2026-05-06 11:03 24.01124 -86.16172 34437 ft 426 kts 14°
2026-05-06 11:03 24.03912 -86.15096 34687 ft 425 kts 17°
2026-05-06 11:03 24.06635 -86.13870 34932 ft 424 kts 20°
2026-05-06 11:04 24.09325 -86.12480 35010 ft 427 kts 22°
2026-05-06 11:04 24.14576 -86.09330 35027 ft 435 kts 25°
2026-05-06 11:05 24.19866 -86.06049 35032 ft 441 kts 25°
2026-05-06 11:05 24.25227 -86.02722 35036 ft 446 kts 25°
2026-05-06 11:06 24.30673 -85.99341 35040 ft 451 kts 25°
2026-05-06 11:06 24.36149 -85.95939 35044 ft 455 kts 25°
2026-05-06 11:07 24.41650 -85.92519 35048 ft 458 kts 25°
2026-05-06 11:07 24.47226 -85.89047 35051 ft 459 kts 25°
2026-05-06 11:08 24.52783 -85.85584 35053 ft 459 kts 25°
2026-05-06 11:08 24.58329 -85.82125 35054 ft 459 kts 25°
2026-05-06 11:09 24.63876 -85.78663 35053 ft 459 kts 25°
2026-05-06 11:09 24.69438 -85.75187 35054 ft 459 kts 25°
2026-05-06 11:10 24.74973 -85.71725 35054 ft 459 kts 25°
2026-05-06 11:10 24.80513 -85.68255 35054 ft 459 kts 25°
2026-05-06 11:11 24.86063 -85.64775 35053 ft 459 kts 25°
2026-05-06 11:11 24.91598 -85.61302 35054 ft 459 kts 25°
2026-05-06 11:12 24.97128 -85.57826 35054 ft 459 kts 25°
2026-05-06 11:12 25.02665 -85.54342 35054 ft 459 kts 25°
2026-05-06 11:13 25.08215 -85.50845 35054 ft 459 kts 24°
2026-05-06 11:13 25.13751 -85.47367 35054 ft 459 kts 24°
2026-05-06 11:14 25.19289 -85.43882 35053 ft 459 kts 24°
2026-05-06 11:14 25.24843 -85.40373 35051 ft 459 kts 24°
2026-05-06 11:15 25.30520 -85.37251 35046 ft 454 kts 17°
2026-05-06 11:15 25.36455 -85.35012 35043 ft 449 kts
2026-05-06 11:16 25.42523 -85.33657 35044 ft 445 kts
2026-05-06 11:16 25.48670 -85.32957 35045 ft 443 kts
2026-05-06 11:17 25.54800 -85.32334 35046 ft 443 kts
2026-05-06 11:17 25.60911 -85.31713 35045 ft 443 kts
2026-05-06 11:18 25.67053 -85.31085 35044 ft 443 kts
2026-05-06 11:18 25.73186 -85.30456 35045 ft 443 kts
2026-05-06 11:19 25.79314 -85.29826 35045 ft 443 kts
2026-05-06 11:19 25.85437 -85.29196 35045 ft 443 kts
2026-05-06 11:20 25.91589 -85.28561 35047 ft 443 kts
2026-05-06 11:20 25.97715 -85.27929 35050 ft 443 kts
2026-05-06 11:21 26.03833 -85.27293 35051 ft 443 kts 360°
2026-05-06 11:21 26.09976 -85.26661 35052 ft 443 kts 360°
2026-05-06 11:22 26.16089 -85.26030 35052 ft 443 kts 360°
2026-05-06 11:22 26.22198 -85.25396 35052 ft 442 kts 360°
2026-05-06 11:23 26.28304 -85.24760 35052 ft 441 kts 360°
2026-05-06 11:23 26.34427 -85.24001 35050 ft 444 kts
2026-05-06 11:24 26.40484 -85.22580 35047 ft 449 kts
2026-05-06 11:24 26.46455 -85.20433 35046 ft 453 kts 13°
2026-05-06 11:25 26.52392 -85.18022 35045 ft 453 kts 14°
2026-05-06 11:25 26.58305 -85.15611 35045 ft 453 kts 14°
2026-05-06 11:26 26.64205 -85.13209 35046 ft 453 kts 14°
2026-05-06 11:26 26.70109 -85.10805 35047 ft 452 kts 13°
2026-05-06 11:27 26.76020 -85.08398 35049 ft 452 kts 13°
2026-05-06 11:27 26.81910 -85.05996 35051 ft 452 kts 13°
2026-05-06 11:28 26.87809 -85.03588 35054 ft 452 kts 13°
2026-05-06 11:28 26.93715 -85.01175 35055 ft 451 kts 13°
2026-05-06 11:29 26.99606 -84.98764 35055 ft 451 kts 13°
2026-05-06 11:29 27.05492 -84.96353 35055 ft 451 kts 13°
2026-05-06 11:30 27.11394 -84.93933 35061 ft 451 kts 13°
2026-05-06 11:30 27.17268 -84.91530 35061 ft 450 kts 13°
2026-05-06 11:31 27.23122 -84.89126 35060 ft 450 kts 13°
2026-05-06 11:31 27.28987 -84.86714 35061 ft 450 kts 13°
2026-05-06 11:32 27.34859 -84.84294 35060 ft 449 kts 13°
2026-05-06 11:32 27.40718 -84.81874 35065 ft 449 kts 13°
2026-05-06 11:33 27.46572 -84.79455 35068 ft 449 kts 13°
2026-05-06 11:33 27.52428 -84.77072 35069 ft 448 kts 12°
2026-05-06 11:34 27.58323 -84.74760 35069 ft 447 kts 12°
2026-05-06 11:34 27.64177 -84.72457 35068 ft 447 kts 12°
2026-05-06 11:35 27.70026 -84.70146 35066 ft 446 kts 11°
2026-05-06 11:35 27.75903 -84.67818 35063 ft 446 kts 11°
2026-05-06 11:36 27.81745 -84.65500 35063 ft 446 kts 11°
2026-05-06 11:36 27.87589 -84.63178 35062 ft 446 kts 11°
2026-05-06 11:37 27.93424 -84.60857 35064 ft 446 kts 11°
2026-05-06 11:37 27.99272 -84.58528 35062 ft 445 kts 11°
2026-05-06 11:38 28.05099 -84.56200 35063 ft 445 kts 11°
2026-05-06 11:38 28.10918 -84.53880 35064 ft 445 kts 11°
2026-05-06 11:39 28.16755 -84.51556 35063 ft 445 kts 11°
2026-05-06 11:39 28.22575 -84.49232 35063 ft 445 kts 11°
2026-05-06 11:40 28.28393 -84.46904 35063 ft 445 kts 11°
2026-05-06 11:40 28.34217 -84.44569 35062 ft 445 kts 11°
2026-05-06 11:41 28.40068 -84.42219 35062 ft 444 kts 11°
2026-05-06 11:41 28.45889 -84.39880 35062 ft 444 kts 11°
2026-05-06 11:42 28.51708 -84.37538 35063 ft 445 kts 11°
2026-05-06 11:42 28.57552 -84.35184 35062 ft 446 kts 11°
2026-05-06 11:43 28.63381 -84.32808 35061 ft 446 kts 11°
2026-05-06 11:43 28.69209 -84.30430 35061 ft 446 kts 11°
2026-05-06 11:44 28.77989 -84.26865 35059 ft 446 kts 11°
2026-05-06 11:44 28.83821 -84.24501 35057 ft 446 kts 11°
2026-05-06 11:45 28.89661 -84.22131 35055 ft 446 kts 11°
2026-05-06 11:45 28.95511 -84.19756 35053 ft 446 kts 11°
2026-05-06 11:46 29.01371 -84.17374 35056 ft 446 kts 10°
2026-05-06 11:46 29.07213 -84.14995 35058 ft 446 kts 10°
2026-05-06 11:47 29.13042 -84.12621 35061 ft 446 kts 10°
2026-05-06 11:47 29.18896 -84.10238 35064 ft 446 kts 10°
2026-05-06 11:48 29.24713 -84.07865 35066 ft 446 kts 10°
2026-05-06 11:48 29.30549 -84.05480 35069 ft 445 kts 10°
2026-05-06 11:49 29.36372 -84.03095 35070 ft 445 kts 10°
2026-05-06 11:49 29.42204 -84.00704 35071 ft 445 kts 10°
2026-05-06 11:50 29.47977 -83.98335 35072 ft 442 kts 10°
2026-05-06 11:50 29.53758 -83.95959 35071 ft 442 kts 10°
2026-05-06 11:51 29.59543 -83.93578 35071 ft 442 kts
2026-05-06 11:51 29.65321 -83.91199 35071 ft 442 kts
2026-05-06 11:52 29.71094 -83.88818 35070 ft 443 kts
2026-05-06 11:52 29.76886 -83.86426 35072 ft 443 kts
2026-05-06 11:53 29.82685 -83.84027 35071 ft 443 kts
2026-05-06 11:53 29.88470 -83.81633 35071 ft 443 kts
2026-05-06 11:54 29.94259 -83.79234 35071 ft 443 kts
2026-05-06 11:54 30.00052 -83.76830 35071 ft 442 kts
2026-05-06 11:55 30.05819 -83.74433 35071 ft 442 kts
2026-05-06 11:55 30.11565 -83.72042 35074 ft 442 kts
2026-05-06 11:56 30.17323 -83.69649 35072 ft 441 kts
2026-05-06 11:56 30.23099 -83.67244 35072 ft 441 kts
2026-05-06 11:57 30.28853 -83.64842 35071 ft 441 kts
2026-05-06 11:57 30.34614 -83.62434 35071 ft 441 kts
2026-05-06 11:58 30.40403 -83.60011 35071 ft 441 kts
2026-05-06 11:58 30.46165 -83.57595 35071 ft 441 kts
2026-05-06 11:59 30.51909 -83.55184 35070 ft 441 kts
2026-05-06 11:59 30.57677 -83.52761 35071 ft 443 kts
2026-05-06 12:00 30.63473 -83.50323 35071 ft 443 kts
2026-05-06 12:00 30.69254 -83.47887 35068 ft 443 kts
2026-05-06 12:01 30.75035 -83.45448 35066 ft 443 kts
2026-05-06 12:01 30.80831 -83.42998 35064 ft 443 kts
2026-05-06 12:02 30.86600 -83.40558 35061 ft 443 kts
2026-05-06 12:02 30.92395 -83.38106 35062 ft 444 kts
2026-05-06 12:03 30.98176 -83.35653 35062 ft 444 kts
2026-05-06 12:03 31.03930 -83.33193 35060 ft 445 kts
2026-05-06 12:04 31.09719 -83.30704 35063 ft 444 kts
2026-05-06 12:04 31.15494 -83.28239 35067 ft 445 kts
2026-05-06 12:05 31.21321 -83.25756 35074 ft 446 kts
2026-05-06 12:05 31.27120 -83.23281 35081 ft 446 kts
2026-05-06 12:06 31.32940 -83.20794 35086 ft 446 kts
2026-05-06 12:06 31.38746 -83.18308 35088 ft 446 kts
2026-05-06 12:07 31.44575 -83.15811 35089 ft 446 kts
2026-05-06 12:07 31.50391 -83.13317 35088 ft 447 kts
2026-05-06 12:08 31.56201 -83.10822 35089 ft 447 kts
2026-05-06 12:08 31.62049 -83.08306 35089 ft 447 kts
2026-05-06 12:09 31.67869 -83.05798 35088 ft 447 kts
2026-05-06 12:09 31.73686 -83.03289 35088 ft 447 kts
2026-05-06 12:10 31.79508 -83.00774 35087 ft 447 kts
2026-05-06 12:10 31.85346 -82.98249 35085 ft 447 kts
2026-05-06 12:11 31.91172 -82.95726 35083 ft 447 kts
2026-05-06 12:11 31.96986 -82.93204 35082 ft 447 kts
2026-05-06 12:12 32.02830 -82.90665 35080 ft 448 kts
2026-05-06 12:12 32.08647 -82.88137 35081 ft 449 kts
2026-05-06 12:13 32.14398 -82.85636 35083 ft 449 kts
2026-05-06 12:13 32.20220 -82.83102 35082 ft 449 kts
2026-05-06 12:14 32.26069 -82.80551 35082 ft 449 kts
2026-05-06 12:14 32.31898 -82.78002 35082 ft 449 kts
2026-05-06 12:15 32.37737 -82.75446 35081 ft 449 kts
2026-05-06 12:15 32.43596 -82.72877 35079 ft 449 kts
2026-05-06 12:16 32.49419 -82.70321 35076 ft 449 kts
2026-05-06 12:16 32.55242 -82.67760 35074 ft 449 kts
2026-05-06 12:17 32.61076 -82.65192 35071 ft 449 kts
2026-05-06 12:17 32.66947 -82.62603 35069 ft 450 kts
2026-05-06 12:18 32.72793 -82.60023 35071 ft 451 kts
2026-05-06 12:18 32.78647 -82.57434 35072 ft 449 kts
2026-05-06 12:19 32.84497 -82.54842 35071 ft 449 kts
2026-05-06 12:19 32.90332 -82.52257 35071 ft 449 kts
2026-05-06 12:20 32.96181 -82.49658 35071 ft 449 kts
2026-05-06 12:20 33.02027 -82.47058 35072 ft 449 kts
2026-05-06 12:21 33.07887 -82.44448 35076 ft 449 kts
2026-05-06 12:21 33.13605 -82.41901 35078 ft 450 kts
2026-05-06 12:22 33.19386 -82.39327 35085 ft 452 kts
2026-05-06 12:22 33.25105 -82.36770 35091 ft 453 kts
2026-05-06 12:23 33.30869 -82.34182 35090 ft 453 kts 10°
2026-05-06 12:23 33.36641 -82.31562 35095 ft 454 kts 10°
2026-05-06 12:24 33.42405 -82.28959 35096 ft 456 kts 10°
2026-05-06 12:24 33.48326 -82.26290 35097 ft 456 kts 10°
2026-05-06 12:25 33.54226 -82.23630 35095 ft 456 kts 10°
2026-05-06 12:25 33.60132 -82.20964 35088 ft 456 kts 10°
2026-05-06 12:26 33.66061 -82.18294 35079 ft 455 kts
2026-05-06 12:26 33.71997 -82.16130 35076 ft 446 kts
2026-05-06 12:27 33.77960 -82.14731 35074 ft 440 kts 359°
2026-05-06 12:27 33.83972 -82.13560 35072 ft 440 kts 359°
2026-05-06 12:28 33.90010 -82.12385 35071 ft 441 kts 359°
2026-05-06 12:28 33.96022 -82.11204 35071 ft 441 kts 359°
2026-05-06 12:29 34.01992 -82.10026 35071 ft 441 kts 359°
2026-05-06 12:29 34.07999 -82.08838 35071 ft 441 kts 359°
2026-05-06 12:30 34.13650 -82.07718 35071 ft 441 kts 359°
2026-05-06 12:30 34.19684 -82.06519 35068 ft 441 kts 359°
2026-05-06 12:31 34.25653 -82.05331 35062 ft 441 kts 359°
2026-05-06 12:31 34.31653 -82.04138 35061 ft 442 kts 359°
2026-05-06 12:32 34.37650 -82.02944 35060 ft 442 kts 359°
2026-05-06 12:32 34.43647 -82.01746 35060 ft 442 kts 359°
2026-05-06 12:33 34.49682 -82.00541 35061 ft 443 kts 359°
2026-05-06 12:33 34.55674 -81.99342 35062 ft 441 kts 359°
2026-05-06 12:34 34.61604 -81.98151 35063 ft 441 kts 359°
2026-05-06 12:34 34.67587 -81.96951 35065 ft 441 kts 359°
2026-05-06 12:35 34.73593 -81.95745 35067 ft 441 kts 359°
2026-05-06 12:35 34.79567 -81.94541 35068 ft 441 kts 359°
2026-05-06 12:36 34.85546 -81.93336 35065 ft 442 kts 359°
2026-05-06 12:36 34.91558 -81.92122 35062 ft 442 kts 359°
2026-05-06 12:37 34.97559 -81.90909 35060 ft 442 kts 359°
2026-05-06 12:37 35.03565 -81.89692 35057 ft 443 kts 358°
2026-05-06 12:38 35.09579 -81.88474 35057 ft 443 kts 358°
2026-05-06 12:38 35.15318 -81.87308 35058 ft 443 kts 358°
2026-05-06 12:39 35.21366 -81.86075 35058 ft 443 kts 358°
2026-05-06 12:39 35.27365 -81.84854 35059 ft 444 kts 358°
2026-05-06 12:40 35.33231 -81.83656 35060 ft 444 kts 358°
2026-05-06 12:40 35.39218 -81.82433 35060 ft 444 kts 358°
2026-05-06 12:41 35.45252 -81.81199 35058 ft 444 kts 358°
2026-05-06 12:41 35.51294 -81.79960 35052 ft 446 kts 358°
2026-05-06 12:42 35.57378 -81.78713 35045 ft 446 kts 358°
2026-05-06 12:42 35.63282 -81.77501 35040 ft 446 kts 358°
2026-05-06 12:43 35.69385 -81.76244 35036 ft 446 kts 358°
2026-05-06 12:43 35.75484 -81.74986 35035 ft 446 kts 358°
2026-05-06 12:44 35.81510 -81.73740 35034 ft 446 kts 358°
2026-05-06 12:44 35.87615 -81.72479 35034 ft 447 kts 358°
2026-05-06 12:45 35.93704 -81.71218 35034 ft 447 kts 358°
2026-05-06 12:46 36.02865 -81.69315 35032 ft 448 kts 358°
2026-05-06 12:46 36.08921 -81.68057 35032 ft 449 kts 358°
2026-05-06 12:47 36.14586 -81.66877 35034 ft 449 kts 358°
2026-05-06 12:47 36.20904 -81.65557 35034 ft 449 kts 358°
2026-05-06 12:48 36.26886 -81.64306 35034 ft 449 kts 358°
2026-05-06 12:48 36.32970 -81.63034 35033 ft 451 kts 358°
2026-05-06 12:49 36.39084 -81.61751 35034 ft 451 kts 358°
2026-05-06 12:49 36.45215 -81.60465 35035 ft 451 kts 358°
2026-05-06 12:50 36.51279 -81.59189 35033 ft 451 kts 358°
2026-05-06 12:50 36.57332 -81.57914 35034 ft 452 kts 358°
2026-05-06 12:51 36.63462 -81.56621 35031 ft 452 kts 358°
2026-05-06 12:51 36.69515 -81.55341 35029 ft 452 kts 358°
2026-05-06 12:52 36.75626 -81.54047 35027 ft 453 kts 358°
2026-05-06 12:52 36.81478 -81.52808 35024 ft 454 kts 358°
2026-05-06 12:53 36.87726 -81.51482 35025 ft 455 kts 357°
2026-05-06 12:53 36.93960 -81.50157 35024 ft 456 kts 357°
2026-05-06 12:54 37.00176 -81.48833 35025 ft 458 kts 357°
2026-05-06 12:54 37.06431 -81.47498 35025 ft 458 kts 357°
2026-05-06 12:55 37.12659 -81.46167 35025 ft 460 kts 357°
2026-05-06 12:55 37.18942 -81.44821 35023 ft 461 kts 357°
2026-05-06 12:56 37.25230 -81.43473 35017 ft 462 kts 357°
2026-05-06 12:56 37.31515 -81.42122 35006 ft 463 kts 357°
2026-05-06 12:57 37.37830 -81.40764 34995 ft 464 kts 357°
2026-05-06 12:57 37.44156 -81.39402 34993 ft 465 kts 357°
2026-05-06 12:58 37.50515 -81.38027 34991 ft 465 kts 357°
2026-05-06 12:58 37.56857 -81.36655 34989 ft 465 kts 357°
2026-05-06 12:59 37.63225 -81.35276 34988 ft 467 kts 357°
2026-05-06 12:59 37.69609 -81.33873 34986 ft 468 kts 358°
2026-05-06 13:00 37.75997 -81.32459 34988 ft 468 kts 358°
2026-05-06 13:00 37.82386 -81.31056 34984 ft 468 kts 358°
2026-05-06 13:01 37.88788 -81.29656 34967 ft 468 kts 357°
2026-05-06 13:01 37.95213 -81.28252 34941 ft 469 kts 357°
2026-05-06 13:02 38.01620 -81.26848 34914 ft 470 kts 357°
2026-05-06 13:02 38.08066 -81.25436 34906 ft 474 kts 357°
2026-05-06 13:03 38.14534 -81.24015 34901 ft 474 kts 357°
2026-05-06 13:03 38.21010 -81.22587 34898 ft 474 kts 357°
2026-05-06 13:04 38.27400 -81.21176 34897 ft 474 kts 357°
2026-05-06 13:04 38.33881 -81.19744 34893 ft 474 kts 357°
2026-05-06 13:05 38.40384 -81.18305 34886 ft 474 kts 357°
2026-05-06 13:05 38.46862 -81.16869 34877 ft 475 kts 357°
2026-05-06 13:06 38.53341 -81.15430 34872 ft 475 kts 357°
2026-05-06 13:06 38.59844 -81.13982 34869 ft 475 kts 357°
2026-05-06 13:07 38.66333 -81.12536 34868 ft 475 kts 357°
2026-05-06 13:07 38.72812 -81.11089 34868 ft 475 kts 357°
2026-05-06 13:08 38.79303 -81.09637 34868 ft 475 kts 357°
2026-05-06 13:08 38.85807 -81.08179 34868 ft 475 kts 357°
2026-05-06 13:09 38.92285 -81.06724 34868 ft 475 kts 357°
2026-05-06 13:09 38.98764 -81.05264 34864 ft 475 kts 357°
2026-05-06 13:10 39.05266 -81.03799 34858 ft 475 kts 357°
2026-05-06 13:10 39.11721 -81.02340 34852 ft 475 kts 356°
2026-05-06 13:11 39.18149 -81.00884 34850 ft 475 kts 356°
2026-05-06 13:11 39.24612 -80.99416 34849 ft 475 kts 356°
2026-05-06 13:12 39.31102 -80.97942 34846 ft 475 kts 356°
2026-05-06 13:12 39.37597 -80.96466 34848 ft 477 kts 356°
2026-05-06 13:13 39.44102 -80.94981 34849 ft 477 kts 356°
2026-05-06 13:13 39.50642 -80.93487 34848 ft 477 kts 356°
2026-05-06 13:14 39.57150 -80.91997 34849 ft 477 kts 356°
2026-05-06 13:14 39.63648 -80.90504 34850 ft 477 kts 356°
2026-05-06 13:15 39.70091 -80.89022 34851 ft 477 kts 356°
2026-05-06 13:15 39.76603 -80.87523 34850 ft 479 kts 356°
2026-05-06 13:16 39.83130 -80.86013 34851 ft 479 kts 356°
2026-05-06 13:16 39.89655 -80.84497 34850 ft 479 kts 356°
2026-05-06 13:17 39.96184 -80.82974 34850 ft 480 kts 357°
2026-05-06 13:17 40.02724 -80.80877 34846 ft 494 kts
2026-05-06 13:18 40.09088 -80.77812 34851 ft 506 kts 10°
2026-05-06 13:18 40.15477 -80.74295 34851 ft 507 kts 11°
2026-05-06 13:19 40.21954 -80.70713 34851 ft 505 kts 11°
2026-05-06 13:19 40.28386 -80.67179 34851 ft 505 kts 11°
2026-05-06 13:20 40.34840 -80.63636 34850 ft 505 kts 11°
2026-05-06 13:20 40.41307 -80.60081 34851 ft 505 kts 11°
2026-05-06 13:21 40.47755 -80.56530 34848 ft 505 kts 11°
2026-05-06 13:21 40.54216 -80.52967 34850 ft 506 kts 11°
2026-05-06 13:22 40.60684 -80.49387 34850 ft 507 kts 11°
2026-05-06 13:22 40.67173 -80.45789 34847 ft 507 kts 11°
2026-05-06 13:23 40.73667 -80.42184 34853 ft 508 kts 11°
2026-05-06 13:23 40.80143 -80.38577 34860 ft 508 kts 11°
2026-05-06 13:24 40.86667 -80.34938 34872 ft 510 kts 12°
2026-05-06 13:24 40.93139 -80.31294 34878 ft 512 kts 12°
2026-05-06 13:25 40.99672 -80.27607 34883 ft 512 kts 12°
2026-05-06 13:25 41.06225 -80.23918 34885 ft 514 kts 13°
2026-05-06 13:26 41.12777 -80.20231 34885 ft 514 kts 13°
2026-05-06 13:26 41.19344 -80.16537 34886 ft 515 kts 13°
2026-05-06 13:27 41.25918 -80.12827 34886 ft 516 kts 13°
2026-05-06 13:27 41.32522 -80.09087 34883 ft 517 kts 13°
2026-05-06 13:28 41.39124 -80.05341 34878 ft 519 kts 13°
2026-05-06 13:28 41.45741 -80.01575 34872 ft 520 kts 13°
2026-05-06 13:29 41.52372 -79.97795 34866 ft 520 kts 14°
2026-05-06 13:29 41.59027 -79.93989 34860 ft 521 kts 14°
2026-05-06 13:30 41.65667 -79.90185 34855 ft 522 kts 14°
2026-05-06 13:30 41.72319 -79.86364 34854 ft 522 kts 14°
2026-05-06 13:31 41.79004 -79.82515 34851 ft 522 kts 14°
2026-05-06 13:31 41.85660 -79.78676 34851 ft 523 kts 14°
2026-05-06 13:32 41.92311 -79.74832 34851 ft 523 kts 14°
2026-05-06 13:32 41.98809 -79.71067 34852 ft 523 kts 14°
2026-05-06 13:33 42.05497 -79.67187 34853 ft 523 kts 14°
2026-05-06 13:33 42.12129 -79.63329 34857 ft 524 kts 14°
2026-05-06 13:34 42.18779 -79.59461 34863 ft 524 kts 14°
2026-05-06 13:34 42.25457 -79.55558 34865 ft 523 kts 14°
2026-05-06 13:35 42.32106 -79.51664 34866 ft 523 kts 14°
2026-05-06 13:35 42.38754 -79.47763 34867 ft 524 kts 15°
2026-05-06 13:36 42.45412 -79.43843 34866 ft 523 kts 15°
2026-05-06 13:36 42.52078 -79.39909 34867 ft 523 kts 15°
2026-05-06 13:37 42.58691 -79.35996 34865 ft 522 kts 15°
2026-05-06 13:37 42.65283 -79.32070 34865 ft 523 kts 16°
2026-05-06 13:38 42.71928 -79.28091 34869 ft 524 kts 16°
2026-05-06 13:38 42.78556 -79.24130 34872 ft 523 kts 16°
2026-05-06 13:39 42.85203 -79.20159 34875 ft 524 kts 16°
2026-05-06 13:39 42.91842 -79.16185 34875 ft 524 kts 16°
2026-05-06 13:40 42.98518 -79.12180 34875 ft 524 kts 17°
2026-05-06 13:40 43.05169 -79.08180 34875 ft 525 kts 17°
2026-05-06 13:41 43.11794 -79.04186 34872 ft 524 kts 17°
2026-05-06 13:41 43.18450 -79.00180 34876 ft 525 kts 17°
2026-05-06 13:42 43.25112 -78.96152 34880 ft 526 kts 17°
2026-05-06 13:42 43.31784 -78.92103 34885 ft 526 kts 17°
2026-05-06 13:43 43.38459 -78.88043 34885 ft 527 kts 17°
2026-05-06 13:43 43.45161 -78.83953 34885 ft 527 kts 17°
2026-05-06 13:44 43.51833 -78.79873 34886 ft 527 kts 17°
2026-05-06 13:44 43.58517 -78.75777 34885 ft 528 kts 17°
2026-05-06 13:45 43.65211 -78.71661 34885 ft 529 kts 17°
2026-05-06 13:45 43.75160 -78.65527 34886 ft 530 kts 17°
2026-05-06 13:46 43.81739 -78.61461 34887 ft 531 kts 17°
2026-05-06 13:46 43.88292 -78.57395 34890 ft 532 kts 17°
2026-05-06 13:47 43.94896 -78.53290 34892 ft 532 kts 17°
2026-05-06 13:47 44.01389 -78.49245 34893 ft 533 kts 17°
2026-05-06 13:48 44.08077 -78.45072 34894 ft 533 kts 17°
2026-05-06 13:48 44.14721 -78.40917 34893 ft 532 kts 17°
2026-05-06 13:49 44.21399 -78.36742 34895 ft 532 kts 17°
2026-05-06 13:49 44.28021 -78.32572 34893 ft 533 kts 18°
2026-05-06 13:50 44.34712 -78.28320 34895 ft 533 kts 18°
2026-05-06 13:50 44.41225 -78.24189 34895 ft 533 kts 18°
2026-05-06 13:51 44.47830 -78.20000 34895 ft 533 kts 18°
2026-05-06 13:51 44.54558 -78.15726 34897 ft 533 kts 18°
2026-05-06 13:52 44.61287 -78.11440 34898 ft 532 kts 18°
2026-05-06 13:52 44.67981 -78.07166 34899 ft 532 kts 18°
2026-05-06 13:53 44.74684 -78.02874 34901 ft 532 kts 18°
2026-05-06 13:53 44.81414 -77.98554 34900 ft 533 kts 18°
2026-05-06 13:54 44.87981 -77.94328 34903 ft 533 kts 18°
2026-05-06 13:54 44.94736 -77.89970 34904 ft 533 kts 18°
2026-05-06 13:55 45.01442 -77.85632 34904 ft 533 kts 18°
2026-05-06 13:55 45.08188 -77.81256 34903 ft 533 kts 18°
2026-05-06 13:56 45.14872 -77.76919 34899 ft 533 kts 18°
2026-05-06 13:56 45.21564 -77.72568 34898 ft 533 kts 18°
2026-05-06 13:57 45.28286 -77.68176 34897 ft 533 kts 18°
2026-05-06 13:57 45.34989 -77.63782 34897 ft 532 kts 18°
2026-05-06 13:58 45.41685 -77.59378 34897 ft 532 kts 18°
2026-05-06 13:58 45.48367 -77.54968 34897 ft 532 kts 18°
2026-05-06 13:59 45.55087 -77.50517 34897 ft 532 kts 18°
2026-05-06 13:59 45.61783 -77.46104 34897 ft 532 kts 18°
2026-05-06 14:00 45.67091 -77.42677 34896 ft 531 kts 18°
2026-05-06 14:00 45.72673 -77.39067 34897 ft 532 kts 18°
2026-05-06 14:01 45.79473 -77.34638 34894 ft 532 kts 19°
2026-05-06 14:01 45.86242 -77.30176 34897 ft 533 kts 19°
2026-05-06 14:02 45.93312 -77.25509 34897 ft 532 kts 19°
2026-05-06 14:02 46.00665 -77.20661 34897 ft 533 kts 18°
2026-05-06 14:03 46.07392 -77.16221 34897 ft 534 kts 18°
2026-05-06 14:03 46.14114 -77.11781 34895 ft 534 kts 18°
2026-05-06 14:04 46.20784 -77.07371 34893 ft 534 kts 18°
2026-05-06 14:04 46.27506 -77.02905 34890 ft 535 kts 18°
2026-05-06 14:05 46.34250 -76.98406 34888 ft 536 kts 18°
2026-05-06 14:05 46.41007 -76.93886 34886 ft 536 kts 18°
2026-05-06 14:06 46.47791 -76.89334 34884 ft 537 kts 18°
2026-05-06 14:06 46.54584 -76.84765 34882 ft 537 kts 18°
2026-05-06 14:07 46.61339 -76.80206 34881 ft 538 kts 18°
2026-05-06 14:07 46.68120 -76.75618 34879 ft 538 kts 18°
2026-05-06 14:08 46.74891 -76.71024 34877 ft 538 kts 18°
2026-05-06 14:08 46.81661 -76.66419 34876 ft 539 kts 18°
2026-05-06 14:09 46.88432 -76.61799 34870 ft 539 kts 18°
2026-05-06 14:09 46.95227 -76.57151 34864 ft 539 kts 18°
2026-05-06 14:10 47.02006 -76.52501 34861 ft 539 kts 18°
2026-05-06 14:10 47.08784 -76.47836 34859 ft 540 kts 18°
2026-05-06 14:11 47.15567 -76.43166 34857 ft 540 kts 18°
2026-05-06 14:11 47.22356 -76.38483 34858 ft 541 kts 18°
2026-05-06 14:12 47.29115 -76.33797 34854 ft 541 kts 19°
2026-05-06 14:12 47.35902 -76.29041 34858 ft 543 kts 19°
2026-05-06 14:13 47.42721 -76.24261 34857 ft 544 kts 19°
2026-05-06 14:13 47.49542 -76.19482 34852 ft 545 kts 19°
2026-05-06 14:14 47.56382 -76.14677 34843 ft 545 kts 19°
2026-05-06 14:14 47.63231 -76.09856 34837 ft 545 kts 19°
2026-05-06 14:15 47.70065 -76.05032 34833 ft 545 kts 19°
2026-05-06 14:15 47.76899 -76.00195 34832 ft 545 kts 19°
2026-05-06 14:16 47.83735 -75.95340 34832 ft 546 kts 19°
2026-05-06 14:16 47.90576 -75.90468 34829 ft 546 kts 19°
2026-05-06 14:17 47.97420 -75.85578 34820 ft 546 kts 19°
2026-05-06 14:17 48.04251 -75.80684 34806 ft 546 kts 19°
2026-05-06 14:18 48.11098 -75.75765 34792 ft 546 kts 19°
2026-05-06 14:18 48.17918 -75.70866 34789 ft 546 kts 19°
2026-05-06 14:19 48.24741 -75.65945 34788 ft 546 kts 19°
2026-05-06 14:19 48.31560 -75.61005 34787 ft 545 kts 19°
2026-05-06 14:20 48.38383 -75.56044 34786 ft 544 kts 19°
2026-05-06 14:20 48.45165 -75.51097 34786 ft 543 kts 19°
2026-05-06 14:21 48.51936 -75.46141 34786 ft 541 kts 19°
2026-05-06 14:21 48.58702 -75.41177 34782 ft 540 kts 19°
2026-05-06 14:22 48.65429 -75.36228 34776 ft 539 kts 19°
2026-05-06 14:22 48.72140 -75.31257 34771 ft 539 kts 20°
2026-05-06 14:23 48.78847 -75.26260 34767 ft 538 kts 20°
2026-05-06 14:23 48.85561 -75.21262 34767 ft 537 kts 20°
2026-05-06 14:24 48.92233 -75.16291 34766 ft 535 kts 20°
2026-05-06 14:24 48.98902 -75.11309 34766 ft 534 kts 20°
2026-05-06 14:25 49.05576 -75.06305 34767 ft 533 kts 20°
2026-05-06 14:25 49.12195 -75.01334 34765 ft 532 kts 20°
2026-05-06 14:26 49.18800 -74.96373 34765 ft 530 kts 20°
2026-05-06 14:26 49.25393 -74.91398 34760 ft 530 kts 20°
2026-05-06 14:27 49.31996 -74.86393 34752 ft 529 kts 20°
2026-05-06 14:27 49.38566 -74.81394 34745 ft 528 kts 20°
2026-05-06 14:28 49.45121 -74.76390 34741 ft 528 kts 21°
2026-05-06 14:28 49.51659 -74.71382 34740 ft 527 kts 20°
2026-05-06 14:29 49.58148 -74.66399 34739 ft 526 kts 21°
2026-05-06 14:29 49.64667 -74.61376 34739 ft 525 kts 21°
2026-05-06 14:30 49.71180 -74.56337 34738 ft 525 kts 21°
2026-05-06 14:30 49.77697 -74.51277 34739 ft 524 kts 21°
2026-05-06 14:31 49.84194 -74.46268 34739 ft 523 kts 20°
2026-05-06 14:31 49.90685 -74.41305 34739 ft 522 kts 20°
2026-05-06 14:32 49.97198 -74.36297 34738 ft 521 kts 20°
2026-05-06 14:32 50.03631 -74.31309 34737 ft 520 kts 22°
2026-05-06 14:33 50.10061 -74.26288 34739 ft 519 kts 22°
2026-05-06 14:33 50.16488 -74.21288 34738 ft 520 kts 21°
2026-05-06 14:34 50.22951 -74.16255 34739 ft 520 kts 21°
2026-05-06 14:34 50.29389 -74.11215 34738 ft 519 kts 21°
2026-05-06 14:35 50.35816 -74.06167 34739 ft 519 kts 22°
2026-05-06 14:35 50.42253 -74.01093 34740 ft 518 kts 22°
2026-05-06 14:36 50.48663 -73.96023 34739 ft 519 kts 22°
2026-05-06 14:36 50.55079 -73.90935 34739 ft 518 kts 22°
2026-05-06 14:37 50.61477 -73.85842 34739 ft 517 kts 22°
2026-05-06 14:37 50.67894 -73.80713 34739 ft 516 kts 22°
2026-05-06 14:38 50.74259 -73.75610 34739 ft 515 kts 22°
2026-05-06 14:38 50.80569 -73.70297 34739 ft 517 kts 26°
2026-05-06 14:39 50.86528 -73.63898 34740 ft 519 kts 33°
2026-05-06 14:39 50.92254 -73.56993 34739 ft 518 kts 34°
2026-05-06 14:40 50.97960 -73.50060 34735 ft 517 kts 34°
2026-05-06 14:40 51.03648 -73.43169 34730 ft 516 kts 34°
2026-05-06 14:41 51.09358 -73.36251 34724 ft 515 kts 34°
2026-05-06 14:41 51.15027 -73.29372 34721 ft 515 kts 34°
2026-05-06 14:42 51.20692 -73.22472 34720 ft 514 kts 34°
2026-05-06 14:42 51.26272 -73.15655 34719 ft 514 kts 35°
2026-05-06 14:43 51.31923 -73.08727 34718 ft 514 kts 35°
2026-05-06 14:43 51.37565 -73.01787 34719 ft 513 kts 35°
2026-05-06 14:44 51.43193 -72.94843 34718 ft 513 kts 35°
2026-05-06 14:45 51.51650 -72.84368 34719 ft 512 kts 35°
2026-05-06 14:45 51.57268 -72.77384 34718 ft 512 kts 35°
2026-05-06 14:46 51.62883 -72.70378 34712 ft 512 kts 35°
2026-05-06 14:46 51.68507 -72.63339 34703 ft 512 kts 35°
2026-05-06 14:47 51.74099 -72.56318 34693 ft 511 kts 35°
2026-05-06 14:47 51.79670 -72.49298 34688 ft 510 kts 35°
2026-05-06 14:48 51.85259 -72.42233 34684 ft 509 kts 35°
2026-05-06 14:48 51.90811 -72.35192 34682 ft 509 kts 36°
2026-05-06 14:49 51.96343 -72.28132 34681 ft 508 kts 37°
2026-05-06 14:49 52.01877 -72.21045 34684 ft 508 kts 37°
2026-05-06 14:50 52.07414 -72.13944 34683 ft 508 kts 37°
2026-05-06 14:50 52.12845 -72.06977 34687 ft 508 kts 36°
2026-05-06 14:51 52.18366 -71.99901 34694 ft 508 kts 36°
2026-05-06 14:51 52.23901 -71.92763 34697 ft 508 kts 36°
2026-05-06 14:52 52.29396 -71.85642 34695 ft 507 kts 37°
2026-05-06 14:52 52.34894 -71.78490 34690 ft 507 kts 37°
2026-05-06 14:53 52.40396 -71.71308 34686 ft 506 kts 37°
2026-05-06 14:53 52.45886 -71.64116 34685 ft 506 kts 37°
2026-05-06 14:54 52.51349 -71.56937 34682 ft 505 kts 37°
2026-05-06 14:54 52.56800 -71.49752 34682 ft 505 kts 37°
2026-05-06 14:55 52.62263 -71.42523 34682 ft 505 kts 37°
2026-05-06 14:55 52.67679 -71.35335 34681 ft 505 kts 37°
2026-05-06 14:56 52.73071 -71.28131 34676 ft 504 kts 38°
2026-05-06 14:56 52.78465 -71.20897 34667 ft 504 kts 38°
2026-05-06 14:57 52.83850 -71.13672 34655 ft 503 kts 38°
2026-05-06 14:57 52.89172 -71.06513 34646 ft 503 kts 38°